Home   Weather   New Bedford   Past weeks

Flag for USA Past Weather in New Bedford, Massachusetts, USA — Yesterday and Last 2 Weeks

Now
86 °F

Sunny.


Feels Like: 89 °F
Forecast: 64 / 88 °F
Wind: 12 mph from West

Location: New Bedford Regional Airport

Current Time: Jul 21, 2017 at 6:47:47 pm

Latest Report: Jul 21, 2017 at 5:53 pm


Visibility: 10 mi

Pressure: 29.78 "Hg

Humidity: 55%

Dew Point: 68 °F

Location of New BedfordLocation

Past Weather in New Bedford — Graph

°F

New Bedford Temperature Yesterday

Maximum temperature yesterday: 90 °F (at 12:53 pm)
Minimum temperature yesterday: 64 °F (at 5:20 am)
Average temperature yesterday: 76 °F

High & Low Weather Summary for the Past Weeks

 TemperatureHumidityPressure
High90 °F (Jul 20, 12:53 pm)100% (Jul 16, 4:26 am)30.13 "Hg (Jul 16, 4:26 am)
Low59 °F (Jul 10, 5:53 am)37% (Jul 9, 2:53 pm)29.65 "Hg (Jul 7, 5:53 pm)
Average71 °F84%29.95 "Hg
* Reported Jul 6 5:53 pm — Jul 21 5:53 pm, New Bedford. Weather by CustomWeather, © 2017

Note: Actual official high and low records may vary slightly from our data, if they occured in-between our weather recording intervals... More about our weather records

Advertising

New Bedford Weather History for the Previous 24 Hours

Scroll right to see more
 ConditionsComfort  
Time TempWeatherWind HumidityBarometerVisibility
5:53 pm
Fri, Jul 21
86 °FSunny.12 mph55%29.78 "Hg10 mi
4:53 pm87 °FSunny.9 mph53%29.79 "Hg10 mi
3:53 pm88 °FSunny.10 mph48%29.79 "Hg10 mi
2:53 pm89 °FSunny.13 mph43%29.80 "Hg10 mi
1:53 pm89 °FSunny.6 mph41%29.81 "Hg10 mi
12:53 pm89 °FSunny.5 mph41%29.83 "Hg10 mi
11:53 am86 °FSunny.7 mph43%29.84 "Hg10 mi
10:53 am85 °FSunny.6 mph46%29.85 "Hg10 mi
9:53 am82 °FSunny.3 mph53%29.85 "Hg10 mi
8:53 am80 °FSunny.9 mph52%29.85 "Hg10 mi
7:53 am77 °FSunny.6 mph62%29.85 "Hg10 mi
6:53 am73 °FSunny.3 mph76%29.83 "Hg10 mi
5:53 am69 °FFog.3 mph96%29.82 "Hg6 mi
5:34 am68 °FFog.No wind96%29.83 "Hg2 mi
5:06 am69 °FFog.No wind100%29.83 "Hg2 mi
4:41 am67 °FFog.No wind97%29.82 "Hg1 mi
4:23 am69 °FFog.No wind96%29.82 "Hg3 mi
4:04 am69 °FFog.No wind96%29.81 "Hg2 mi
3:53 am69 °FFog.No wind96%29.81 "Hg3 mi
3:33 am69 °FFog.No wind96%29.82 "Hg2 mi
3:01 am70 °FFog.5 mph97%29.81 "Hg2 mi
2:37 am70 °FFog.No wind93%29.81 "Hg2 mi
1:53 am70 °FFog.5 mph93%29.81 "Hg5 mi
12:53 am71 °FFog.No wind93%29.82 "Hg6 mi
11:53 pm
Thu, Jul 20
74 °FPassing clouds.No wind91%29.83 "Hg8 mi
10:53 pm76 °FPassing clouds.No wind85%29.83 "Hg10 mi
9:53 pm76 °FClear.7 mph85%29.82 "Hg10 mi
8:53 pm78 °FClear.8 mph79%29.83 "Hg10 mi
7:53 pm78 °FScattered clouds.9 mph79%29.83 "Hg10 mi
6:53 pm81 °FPassing clouds.10 mph62%29.84 "Hg10 mi
Weather by CustomWeather, © 2017

See weather overviewHow to use our weather pages